Regional Weather Roundup
Issued by NWS

Home | Current Version | Previous Version | Text Only | Print | Product List | Glossary On
Versions: 1 2 3 4 5 6 7 8 9 10 11 12 13 14 15 16 17 18 19 20 21 22 23 24 25 26 27
000
ASUS42 KKEY 291510
RWRKEY

FLORIDA REGIONAL WEATHER ROUNDUP FOR THE FLORIDA KEYS
NATIONAL WEATHER SERVICE KEY WEST FLORIDA
1100 AM EDT FRI JUL 29 2016

...SOUTH FLORIDA AND THE KEYS...

CITY           SKY/WX    TMP DP  RH WIND       PRES   REMARKS
FORT MYERS     MOSUNNY   88  75  65 E3        30.07S HX  97
SW REGIONAL AP MOSUNNY   88  74  63 VRB3      30.08R HX  96
NAPLES         MOSUNNY   87  76  69 S6        30.07S HX  97
MIAMI          PTSUNNY   87  76  69 VRB5      30.08S HX  97
WEST KENDALL   MOSUNNY   88  75  65 VRB3      30.07F HX  97
HOMESTEAD      MOSUNNY   89  77  68 E3        30.07S HX 101
MARATHON       MOSUNNY   87  79  76 SE6       30.08R HX 101
BOCA CHICA NAS NOT AVBL
KEY WEST INTL  SUNNY     88  79  74 SE8       30.08R HX 103

...INTERNATIONAL WEATHER...

CITY           SKY/WX    TMP DP  RH WIND       PRES   REMARKS
NASSAU BAHAMAS PTSUNNY   91  77  62 NE7       30.09  HX 105
CANCUN MEXICO  PTSUNNY   86  77  74 E9        30.03R HX  97
COZUMEL MEXICO PTSUNNY   86  75  70 E14       30.02R HX  95

ADJACENT COASTAL WATERS...

STATION/POSITION TIME  SKY/WX   TEMP    WIND        PRES    WAVE
                                AIR SEA DIR/SP/G            HT/PER
                 (UTC)          (F)     (DEG/KT/KT) (MB)    (FT/S)
PULASKI SHOAL LI 1500            85     120/  7/  7 1018.6R
SAND KEY         1450            84     130/  9/ 11 1018.9R
LONG KEY         1400            85 86   CALM  /  1 1018.7R
FOWEY ROCKS      1500            85 86  140/  3/  3 1019.2R

$$




USA.gov is the U.S. government's official web portal to all federal, state and local government web resources and services.